RH
19 17 16 9 8 7 6 5 8 14 20 27 43 76 70 67 57 55 58 42 46 55 70 73 72 64 49 54 33 32 30 30 28 30 30 36 61 73 78 76 75 71 67 69
26 18 16 14 10 8 7 6 7 13 17 21 43 64 71 75 72 68 65 77 51 45 71 87 88 93 64 82 43 31 30 29 29 30 31 32 46 62 66 70 79 84 85 84
35 28 21 17 15 10 9 8 7 8 17 18 26 41 63 73 82 79 69 66 71 55 75 98 92 100 100 80 43 35 38 37 33 31 34 32 35 46 56 67 85 87 89 93
48 37 27 19 16 12 11 8 8 7 8 19 20 24 32 59 71 71 78 69 76 80 61 77 96 98 100 99 76 60 41 44 44 33 33 34 34 37 44 69 82 86 86 81
69 42 33 25 18 18 11 11 8 8 7 8 18 21 22 24 29 42 68 70 74 71 90 66 78 94 90 100 91 74 49 45 46 40 36 39 36 37 51 64 72 70 70 70
44 44 38 33 24 17 17 11 11 8 8 7 9 15 21 21 20 22 45 70 75 76 76 84 89 71 78 94 96 68 57 50 56 54 42 45 42 38 48 54 60 63 63 63
56 43 44 39 32 21 18 17 11 11 8 8 7 7 22 21 22 23 31 49 63 73 78 99 92 81 78 77 68 65 59 49 59 67 56 49 49 43 44 54 55 55 58 58
60 56 51 44 41 31 20 18 18 13 11 8 7 8 11 17 20 22 21 24 42 61 77 83 100 98 61 63 60 59 54 41 56 73 65 51 52 51 51 54 55 56 56 54
63 59 60 50 43 34 26 20 18 17 13 10 8 9 8 11 16 19 21 24 30 41 46 57 86 85 75 61 63 58 47 37 43 51 58 53 53 55 56 57 60 60 58 59
58 62 65 59 46 41 30 22 18 20 16 12 10 8 9 8 11 16 18 20 25 30 33 47 64 63 68 62 64 53 59 48 32 31 36 55 58 57 60 61 65 64 66 69
54 58 67 65 51 45 36 32 21 18 19 17 13 10 9 8 8 10 16 19 21 22 26 35 46 51 51 52 49 44 44 47 42 33 29 41 61 63 66 67 66 69 70 70
72 59 66 66 52 49 42 42 28 21 19 18 17 12 9 9 9 10 10 15 18 20 22 25 36 35 42 45 43 41 40 38 43 43 37 36 47 67 68 70 72 72 70 67
88 72 62 74 63 49 48 43 41 23 20 21 18 17 12 10 10 8 10 9 12 18 20 24 28 30 37 40 38 38 36 34 34 37 39 35 42 58 67 72 74 68 62 66
61 77 69 83 80 60 54 53 39 35 22 22 23 19 16 14 13 12 9 9 10 15 19 22 24 27 34 33 33 34 32 33 32 33 36 38 38 41 44 54 53 49 43 39
75 64 77 86 96 90 81 53 50 42 28 23 23 22 22 19 16 16 14 11 10 14 18 21 24 25 28 29 33 32 32 31 30 31 36 37 39 41 42 39 38 36 36 36
84 86 76 89 100 98 97 82 54 47 43 29 23 24 23 23 22 17 16 18 18 16 19 22 24 26 25 26 28 28 27 27 29 31 35 38 40 39 39 40 39 36 38 40
100 98 90 59 97 100 89 97 91 64 53 42 39 24 25 23 26 24 24 19 18 21 23 26 27 29 28 27 27 27 27 29 33 36 36 38 40 41 40 39 42 40 40 49
100 100 100 99 65 86 77 71 100 94 74 51 44 40 31 24 24 32 32 31 29 25 23 24 26 27 28 28 29 29 31 35 37 40 43 44 45 44 43 44 57 58 54 60
98 100 100 100 97 72 88 79 79 94 100 74 72 80 46 34 25 27 26 32 41 41 36 33 31 30 31 34 36 39 42 42 42 45 47 47 49 57 70 64 60 59 69 80
100 100 86 100 100 100 100 100 77 84 96 100 100 100 64 78 50 31 27 28 36 36 42 44 46 46 45 44 44 46 54 59 61 59 62 67 71 74 71 64 95 89 85 99
100 100 100 96 89 100 100 100 83 62 100 76 79 79 100 87 88 87 69 48 38 35 36 48 58 54 60 66 68 68 69 71 67 64 66 72 83 84 82 80 90 93 98 96
82 91 99 100 100 93 96 100 98 77 64 91 92 86 98 100 100 100 100 100 89 68 51 40 42 45 53 62 70 79 85 81 91 96 97 95 92 85 85 86 100 99 95 98
63 54 63 99 90 96 99 81 100 88 70 66 66 82 90 85 100 100 100 100 100 100 100 100 95 85 64 42 48 57 60 52 59 64 72 75 63 71 81 100 100 100 100 100
86 71 66 67 98 100 97 94 81 94 79 69 70 97 85 93 66 66 83 92 100 100 100 90 97 99 100 99 97 97 92 93 100 100 100 100 100 100 100 100 100 100 99 98
91 95 88 84 94 96 87 85 89 90 93 77 68 47 60 72 93 80 91 88 86 84 97 100 100 100 100 100 100 100 100 100 99 100 100 100 98 95 96 95 98 94 96 99
100 100 100 100 100 97 92 85 82 83 90 82 79 74 46 54 78 90 94 92 95 100 88 82 80 81 93 100 99 96 96 100 100 100 100 100 100 100 100 100 100 100 100 100
Wind_Speed
87 86 67 36 18 13 30 53 80 97 100 102 103 107 101 98 95 90 82 82 77 72 62 57 59 61 63 65 65 61 57 53 49 45 44 43 44 44 44 46 47 48 47 45
79 85 84 62 30 12 18 37 63 89 97 98 107 109 107 103 101 96 90 77 82 77 66 62 56 63 63 62 63 64 61 57 54 50 46 45 45 45 45 45 45 45 45 45
75 81 84 78 57 23 12 24 43 71 92 97 103 108 113 107 107 100 94 89 79 80 67 64 58 60 65 64 62 61 61 59 57 53 49 46 45 44 44 44 43 43 43 43
69 75 80 82 75 47 18 17 32 46 73 97 101 102 106 109 109 106 100 95 90 80 81 64 62 61 65 67 64 61 60 60 59 56 52 49 46 45 43 40 40 41 41 41
66 71 77 75 78 72 35 14 21 36 49 73 97 103 98 103 106 106 104 100 95 91 84 82 70 69 67 65 68 64 62 62 58 57 55 51 49 46 43 41 41 41 43 45
65 67 71 72 77 74 58 28 13 25 37 50 78 96 103 101 95 96 101 102 100 94 92 85 82 81 71 67 68 67 65 62 58 58 57 54 50 48 46 45 44 45 46 49
60 65 66 67 70 73 71 50 26 16 25 43 54 74 100 101 100 100 100 101 102 100 96 90 87 81 75 71 73 71 69 62 60 61 58 55 53 52 49 49 48 49 51 53
54 59 62 65 63 68 70 64 43 26 16 25 42 53 82 100 99 99 97 96 100 102 100 98 90 81 82 80 77 72 69 67 66 61 61 59 57 55 53 53 52 52 54 57
49 50 56 61 63 63 67 64 57 40 23 14 25 47 59 81 97 99 98 96 98 98 98 95 92 88 86 82 77 75 75 75 69 65 63 62 61 60 58 57 56 57 60 62
46 47 51 54 58 61 61 58 61 53 35 19 16 29 50 60 82 97 97 95 97 98 97 96 93 91 88 84 84 77 70 72 72 69 67 66 65 64 63 62 62 64 65 67
43 44 48 50 52 55 58 57 55 57 45 31 19 16 27 48 60 78 96 98 96 94 93 93 92 92 88 86 83 77 76 73 73 71 68 67 69 68 66 66 68 69 70 73
40 42 43 46 51 49 53 45 53 52 51 44 28 19 15 24 42 60 75 92 97 95 92 90 89 88 85 82 80 77 79 77 72 70 70 70 69 70 70 71 72 74 76 78
43 43 43 42 44 47 49 51 51 49 48 48 36 26 14 11 19 35 57 67 82 92 87 86 85 83 80 80 78 78 79 74 73 72 73 72 70 72 74 75 77 78 79 80
44 44 39 41 39 39 44 45 48 43 42 42 42 30 19 10 9 16 30 48 59 75 83 81 82 81 80 78 77 78 75 74 74 75 75 73 72 72 73 75 76 77 77 78
43 45 40 42 43 38 41 43 42 38 36 33 38 37 27 15 9 7 14 27 42 57 71 74 76 78 78 77 76 75 73 74 75 72 72 72 73 73 74 76 76 77 78 79
45 44 42 43 43 39 39 44 40 41 34 27 30 30 31 22 11 9 13 20 29 45 59 69 71 73 73 71 73 73 72 70 69 67 68 69 69 71 75 76 78 80 80 82
47 44 44 46 42 42 45 44 45 39 37 33 33 26 25 27 21 10 3 11 23 32 43 56 62 65 66 67 68 67 62 59 60 63 64 67 70 72 74 77 79 81 78 73
56 54 45 51 50 45 50 42 44 45 36 33 30 30 23 20 20 15 7 2 11 22 33 42 49 54 58 60 62 60 57 59 62 64 66 69 71 73 75 73 69 68 73 72
60 58 58 54 51 55 51 48 45 44 42 39 34 34 33 22 17 20 17 11 7 10 17 27 37 44 50 53 55 57 59 61 63 65 67 68 67 65 66 68 69 69 71 73
70 69 64 59 59 54 54 56 52 46 43 43 42 34 33 29 26 22 21 22 24 23 20 22 24 28 33 37 42 46 49 50 54 56 59 60 62 65 67 69 70 72 74 75
78 76 72 70 65 59 58 58 65 55 48 49 42 45 43 37 32 32 33 35 33 34 35 36 34 34 37 39 43 46 49 55 58 61 62 65 67 69 71 72 75 78 79 83
84 84 79 79 72 66 73 68 65 66 59 48 48 47 46 45 44 42 40 40 41 43 44 45 46 48 48 50 51 54 57 60 62 64 67 71 75 75 77 80 84 85 89 90
88 90 86 85 80 79 77 74 71 69 70 63 55 54 52 52 54 55 55 53 52 52 52 52 53 55 57 61 63 65 68 70 73 74 77 81 84 86 88 90 91 93 94 96
93 94 92 90 87 89 87 83 77 73 72 71 68 66 63 61 59 60 59 61 61 62 64 64 64 64 64 66 70 72 74 77 79 82 84 87 88 90 94 98 101 104 104 107
101 100 98 96 95 96 95 90 83 81 80 75 72 73 72 70 71 70 71 70 69 70 71 72 74 75 77 80 82 83 84 86 87 89 90 93 95 98 100 102 104 106 109 111
102 102 104 100 102 102 98 98 91 89 87 86 85 83 82 80 80 80 79 79 78 78 79 81 83 85 86 87 88 89 92 92 94 96 98 100 102 103 104 106 109 112 114 116
Wind_Direction
14 16 17 4 346 262 229 224 216 213 215 215 215 218 220 221 224 223 222 224 226 227 228 230 232 240 239 241 242 244 247 250 253 254 258 260 259 259 260 262 265 267 269 272
12 16 19 16 359 321 241 221 220 217 215 214 215 217 220 220 223 223 222 223 224 226 227 227 229 235 235 240 241 242 245 249 252 253 257 259 260 261 264 265 266 268 270 273
9 10 13 16 14 352 278 228 220 219 219 218 216 217 219 220 223 223 223 222 222 223 222 223 228 233 237 240 241 241 243 246 249 252 255 259 260 261 263 265 266 270 273 274
6 6 11 16 20 13 343 246 222 221 221 219 218 218 219 220 223 224 223 222 222 220 221 222 224 230 237 237 241 242 243 245 247 250 254 257 260 261 263 265 268 271 275 279
0 4 5 10 17 19 9 324 241 225 222 222 220 219 219 220 221 222 223 223 223 223 224 223 224 226 231 236 238 241 243 244 246 249 252 255 258 260 263 266 270 274 279 282
355 358 3 6 10 17 19 4 301 244 229 224 222 221 221 221 222 223 223 223 225 224 225 227 227 230 231 233 238 239 243 246 248 248 251 254 258 261 264 267 271 275 277 279
352 354 359 2 6 12 15 16 1 298 247 232 224 223 219 221 220 221 220 222 223 224 224 224 228 227 229 233 236 238 241 244 246 247 250 254 258 261 264 268 272 275 278 279
347 349 353 357 2 8 9 17 12 355 299 253 238 225 221 223 223 222 223 221 222 222 223 224 225 228 232 234 237 239 240 242 243 246 249 252 257 262 265 269 272 276 278 279
339 345 348 351 355 1 5 5 11 8 343 287 236 229 228 224 225 223 223 221 222 223 225 225 226 229 232 234 237 241 242 244 244 247 251 254 256 260 265 269 273 275 277 280
333 338 343 346 350 353 1 3 7 11 7 340 267 238 229 228 224 225 226 222 222 222 223 224 225 228 230 232 237 239 243 245 247 249 251 254 257 260 264 268 272 274 277 280
325 329 335 340 345 348 355 359 2 7 11 7 345 277 240 233 228 227 226 225 224 224 223 223 225 228 230 232 237 239 242 246 249 250 253 255 257 261 264 268 271 274 277 279
315 321 329 333 337 343 346 357 2 1 8 10 4 341 271 241 234 230 229 227 226 224 224 224 225 228 230 233 236 239 242 244 247 251 254 256 259 261 264 267 271 273 276 279
308 311 316 325 331 335 340 344 352 2 359 7 9 5 337 272 245 236 231 231 226 226 226 225 226 230 231 233 237 241 245 248 250 252 254 257 260 262 266 268 271 274 278 282
305 304 305 313 321 325 332 336 343 355 358 357 11 5 1 331 286 252 235 231 228 226 225 225 227 229 230 233 237 242 246 249 252 252 254 257 260 264 267 270 274 278 281 285
296 304 302 301 306 317 323 328 334 342 356 357 358 13 12 353 321 269 243 229 225 223 225 228 229 231 232 235 239 243 247 250 252 256 257 260 262 265 269 273 276 280 281 283
285 293 299 297 296 303 312 316 324 328 334 354 357 355 16 15 356 306 224 213 220 219 221 227 231 234 238 239 243 246 250 254 257 259 262 262 265 268 270 273 275 278 282 284
273 276 284 296 291 300 301 306 309 313 321 325 333 348 350 5 9 13 343 244 223 222 224 227 233 237 242 243 245 251 257 261 262 262 263 262 265 269 271 274 277 280 281 282
272 270 275 283 289 296 294 299 297 300 305 312 323 330 333 332 346 358 359 237 225 231 230 232 236 240 244 248 251 255 257 258 259 259 261 264 267 270 274 277 280 279 281 283
273 275 271 275 277 286 284 290 291 291 295 299 302 310 313 316 304 311 314 309 258 233 233 236 237 237 237 240 243 248 251 253 256 259 263 267 270 273 275 276 279 281 283 284
268 270 271 271 270 273 279 281 284 285 285 287 295 294 300 305 304 280 275 282 292 285 270 263 256 248 247 246 248 250 253 258 260 262 265 268 269 272 276 278 280 282 283 286
264 266 268 270 266 269 269 271 278 281 279 279 280 286 290 288 285 286 286 280 271 275 277 277 274 269 266 265 264 264 265 265 266 268 268 268 273 274 279 283 284 284 285 288
260 264 266 266 268 267 266 267 269 274 273 271 275 272 276 280 280 276 270 266 271 274 273 271 273 272 275 276 274 273 273 274 274 273 275 275 278 280 281 283 284 284 286 287
257 260 261 263 266 268 267 266 263 266 271 272 270 273 273 272 269 273 275 274 273 270 271 270 270 271 272 273 273 275 275 275 276 276 277 278 280 280 282 284 284 284 284 286
254 256 259 262 263 265 267 266 264 265 266 269 271 272 269 268 269 270 272 273 273 273 270 269 267 265 264 264 266 267 269 271 271 271 273 274 274 275 276 278 280 282 284 283
253 255 258 259 262 263 265 267 266 265 262 263 265 267 267 266 268 269 271 272 273 274 272 269 268 269 269 271 271 271 272 273 273 274 275 276 277 278 280 281 282 281 282 283
254 255 257 259 261 262 265 266 265 264 265 264 262 262 262 264 266 268 269 269 270 271 271 272 273 274 275 275 275 275 274 275 275 276 277 277 278 278 279 280 281 282 282 282